Location: Ponte Samoggia
(44.5667°N, 11.1333°E)
Time: 21:54:32
(UTC+00:00)

Cosmos 839 Rocket - Pass Details

Date: 26 May 2022
Orbit: 968 x 2085 km, 65.9° (Epoch: 29 June)

Event Time Altitude Azimuth Distance (km) Brightness Sun altitude
Rises 00:36:23 0° 323° (NW) 3,703 7.5 -21.6°
Reaches altitude 10° 00:38:50 10° 320° (NW) 2,799 6.7 -21.4°
Maximum altitude 00:45:09 60° 242° (WSW) 1,268 4.3 -21.0°
Enters shadow 00:49:11 28° 173° (S) 2,113 5.3 -20.7°
